Total_Precipitation_Accumulation
3.35 3.47 3.46 3.48 3.27 3.23 3.18 3.08 2.95 3.01 2.89 2.64 2.34 2.28 2.32 2.26 2.39 2.65 2.78 3.02 3.04 3.38 3.93 4.25 4.24 4.24 4.45 4.56 4.34 4.14 3.94 3.81 3.65 3.25 2.89 2.72 2.60 2.52 2.31 2.22 2.20 2.14 2.17
3.63 3.73 3.70 3.69 3.60 3.46 3.49 3.33 3.14 3.33 3.22 3.09 2.86 2.72 2.61 2.66 2.64 2.72 2.93 3.17 3.14 3.13 3.49 3.91 4.18 4.38 4.69 4.78 4.59 4.14 3.87 3.89 4.00 3.78 3.41 3.08 2.81 2.72 2.63 2.50 2.34 2.21 2.16
3.64 3.84 3.99 3.91 3.93 3.81 3.77 3.72 3.68 3.77 3.47 3.28 3.10 2.96 2.92 3.03 2.96 2.88 3.05 3.23 3.20 3.30 3.32 3.37 3.59 3.87 4.30 4.63 4.71 4.52 4.14 3.90 3.97 3.99 3.82 3.49 3.14 2.95 2.83 2.73 2.65 2.55 2.45
3.63 4.01 4.13 4.15 4.26 4.17 4.24 4.30 4.21 4.10 3.98 3.69 3.47 3.12 2.99 3.14 3.12 3.13 3.20 3.25 3.42 3.35 3.35 3.22 3.28 3.36 3.71 4.23 4.45 4.69 4.68 4.50 4.22 4.02 3.93 3.71 3.47 3.24 3.02 2.81 2.72 2.74 2.68
4.18 4.37 4.46 4.56 4.63 4.70 4.75 4.52 4.70 4.48 4.38 4.19 3.73 3.46 3.16 3.03 3.02 2.96 3.11 3.05 3.19 3.27 3.40 3.36 3.31 3.28 3.50 4.08 4.39 4.71 4.88 4.89 4.75 4.37 4.10 3.88 3.76 3.58 3.34 3.11 2.90 2.77 2.72
4.91 5.08 4.98 5.07 5.14 5.23 5.11 5.09 5.21 4.98 4.64 4.57 4.07 3.85 3.51 3.15 3.10 3.08 3.05 3.18 3.08 2.90 3.14 3.35 3.50 3.28 3.49 3.73 4.05 4.48 4.73 4.92 4.93 4.68 4.53 4.38 4.12 3.84 3.46 3.12 2.89 2.77 2.71
5.89 5.98 5.71 5.78 5.71 5.59 5.36 5.33 5.26 5.03 4.74 4.69 4.56 4.13 3.44 3.01 2.94 2.84 2.84 3.06 3.02 2.96 3.08 3.21 3.28 3.17 3.02 3.16 3.30 3.74 4.31 4.75 5.07 4.95 4.74 4.51 4.17 3.92 3.64 3.34 3.08 2.92 2.77
6.77 6.83 6.83 6.58 6.42 6.18 5.70 5.32 5.19 4.95 4.58 4.69 4.73 4.72 3.99 3.45 2.87 2.39 2.51 2.55 2.63 2.89 2.80 2.76 2.92 3.06 2.91 2.90 2.71 2.93 3.32 3.86 4.51 4.84 4.83 4.55 4.27 4.07 3.87 3.68 3.47 3.27 3.04
6.78 7.03 7.12 6.90 6.56 6.02 5.46 5.34 5.32 5.14 4.85 4.73 4.62 4.87 4.30 3.71 3.18 2.60 2.31 2.26 2.40 2.51 2.53 2.55 2.55 2.65 2.63 2.72 2.66 2.67 2.84 3.09 3.70 4.28 4.46 4.20 4.00 3.87 3.82 3.73 3.67 3.55 3.39
6.57 6.52 6.45 6.11 5.77 5.40 5.12 4.98 5.08 4.98 4.92 4.65 4.54 4.21 3.93 3.62 3.39 2.92 2.40 2.19 2.30 2.34 2.32 2.25 2.25 2.48 2.58 2.64 2.69 2.60 2.50 2.62 3.06 3.57 3.88 3.89 3.76 3.67 3.69 3.66 3.62 3.67 3.70
5.77 5.33 5.04 4.89 4.85 4.71 4.53 4.42 4.47 4.38 4.14 4.00 3.99 3.94 3.87 3.60 3.24 3.02 2.70 2.46 2.42 2.21 2.19 2.28 2.37 2.49 2.63 2.68 2.73 2.67 2.55 2.35 2.49 2.79 3.10 3.32 3.50 3.56 3.62 3.78 3.85 3.85 3.86
4.91 4.37 4.13 4.03 3.94 3.80 3.63 3.53 3.55 3.55 3.58 3.63 3.69 3.69 3.66 3.60 3.35 3.33 3.11 2.80 2.65 2.44 2.34 2.34 2.41 2.57 2.78 2.87 2.78 2.99 2.60 2.33 2.29 2.43 2.59 2.74 3.00 3.17 3.30 3.46 3.69 3.82 3.93
4.41 3.95 3.55 3.38 3.12 2.95 2.89 2.97 2.98 2.96 3.06 3.16 3.26 3.36 3.38 3.28 3.18 3.26 3.36 3.08 2.79 2.58 2.53 2.43 2.41 2.54 2.61 2.87 3.14 3.23 2.72 2.47 2.28 2.22 2.29 2.39 2.56 2.74 2.80 2.84 3.09 3.35 3.58
3.81 3.54 3.14 2.81 2.58 2.44 2.35 2.54 2.59 2.59 2.68 2.77 2.83 3.09 3.05 2.94 3.04 3.13 3.28 3.43 3.33 2.92 2.63 2.46 2.40 2.43 2.46 2.54 2.84 3.00 2.60 2.55 2.28 2.14 2.11 2.21 2.33 2.52 2.56 2.56 2.75 2.94 3.05
2.97 2.83 2.63 2.46 2.33 2.27 2.28 2.37 2.35 2.40 2.54 2.59 2.62 2.76 2.87 2.84 2.90 2.92 3.03 3.18 3.32 3.11 2.79 2.53 2.43 2.39 2.41 2.48 2.70 2.32 2.27 2.48 2.31 2.16 2.05 2.00 2.00 2.18 2.27 2.23 2.21 2.27 2.34
2.31 2.31 2.25 2.26 2.20 2.13 2.20 2.29 2.16 2.18 2.28 2.30 2.31 2.42 2.50 2.52 2.66 2.70 2.79 2.91 3.03 3.00 2.82 2.47 2.41 2.39 2.33 2.16 2.38 2.07 2.12 2.31 2.12 2.01 1.95 1.96 1.91 1.91 1.97 2.01 1.99 1.95 1.95
1.98 1.98 2.00 2.03 2.05 2.03 2.09 2.07 1.92 1.95 2.00 2.17 2.28 2.33 2.36 2.39 2.50 2.48 2.50 2.55 2.66 2.85 2.94 2.71 2.53 2.46 2.45 2.34 2.19 1.98 1.86 1.86 1.80 1.91 1.88 1.86 1.81 1.80 1.83 1.83 1.78 1.73 1.67
1.85 1.87 1.88 1.85 1.89 2.00 2.09 2.01 1.86 1.82 1.95 2.09 2.21 2.35 2.30 2.24 2.27 2.31 2.39 2.40 2.41 2.58 2.74 2.67 2.51 2.38 2.37 2.34 2.27 2.17 1.81 1.63 1.60 1.66 1.62 1.57 1.59 1.62 1.60 1.61 1.60 1.56 1.51
1.87 1.84 1.80 1.80 1.84 1.91 1.94 1.86 1.78 1.73 1.79 1.89 1.99 2.05 2.08 2.10 2.02 2.01 2.06 2.14 2.14 2.17 2.42 2.45 2.33 2.26 2.19 2.15 2.23 2.16 1.94 1.94 1.55 1.49 1.42 1.36 1.35 1.36 1.35 1.33 1.35 1.41 1.42
1.81 1.84 1.84 1.83 1.80 1.72 1.59 1.53 1.52 1.55 1.59 1.60 1.65 1.67 1.75 1.88 1.90 1.91 1.85 1.94 2.03 2.18 2.28 2.32 2.20 2.13 2.14 2.02 2.11 2.10 2.05 1.91 1.70 1.41 1.42 1.28 1.20 1.16 1.15 1.16 1.15 1.16 1.21
1.61 1.69 1.75 1.68 1.55 1.40 1.22 1.23 1.30 1.31 1.42 1.44 1.45 1.38 1.38 1.61 1.77 1.72 1.55 1.72 1.96 2.13 2.19 2.21 2.09 1.97 1.90 2.00 1.96 1.90 1.95 1.94 1.84 1.64 1.64 1.42 1.31 1.22 1.23 1.23 1.17 1.12 1.13
1.78 1.71 1.69 1.61 1.46 1.18 1.19 1.14 1.23 1.36 1.46 1.44 1.46 1.46 1.35 1.39 1.47 1.43 1.34 1.47 1.74 1.83 1.95 2.12 2.09 1.97 1.88 1.90 1.94 1.94 2.00 2.09 2.04 1.77 1.81 1.64 1.50 1.48 1.36 1.27 1.25 1.16 1.13
1.86 1.78 1.64 1.59 1.54 1.44 1.31 1.10 1.11 1.26 1.37 1.38 1.40 1.43 1.26 1.17 1.36 1.38 1.38 1.36 1.42 1.45 1.57 1.92 2.12 1.97 1.93 1.99 2.14 2.08 2.18 2.19 2.03 1.92 2.08 1.98 1.68 1.54 1.25 1.16 1.25 1.13 1.11
1.84 1.78 1.70 1.58 1.46 1.22 1.08 0.95 0.98 1.09 1.30 1.34 1.32 1.37 1.43 1.33 1.26 1.32 1.33 1.33 1.37 1.41 1.38 1.45 1.71 1.83 1.87 2.01 2.16 2.23 2.35 2.27 2.12 2.05 2.18 2.21 1.82 1.67 1.37 1.36 1.30 1.13 1.08
1.81 1.70 1.60 1.54 1.46 1.26 1.04 0.91 0.97 1.10 1.28 1.30 1.27 1.26 1.34 1.35 1.34 1.30 1.34 1.46 1.51 1.50 1.29 1.30 1.37 1.51 1.61 1.76 1.91 2.06 2.31 2.50 2.31 2.02 2.04 2.22 1.94 1.80 1.63 1.51 1.35 1.25 1.14
1.73 1.64 1.49 1.45 1.42 1.38 1.25 1.06 1.05 1.09 1.23 1.27 1.35 1.33 1.27 1.28 1.32 1.27 1.37 1.56 1.57 1.53 1.41 1.36 1.48 1.58 1.58 1.70 1.80 1.95 2.26 2.39 2.24 2.12 1.89 2.03 1.97 2.05 2.02 1.64 1.46 1.40 1.32